Starlink 11108

operational
NORAD ID: 59712 Int'l Des: 2024-088 Owner: SPXS Country: US Constellation: starlink
LEOCIRCULAR

About Starlink 11108

Description loading...

Live Position

Loading 3D Globe...

Upcoming Passes

Altitude History

Altitude vs Time

uPlot chart will show altitude changes over time

Two-Line Element Set

1 59712U 24088E 25258.74712579 .00002635 00000-0 26580-4 0 9991
2 59712 53.1596 108.8138 0000536 109.3057 250.8019 15.69724335 78794
Epoch: Sep 15, 2025 • Age: 14 hours

Current Status

Altitude 360.0 km
Velocity 7.70 km/s
Sub-Earth Point 17.14°N, 7.12°E
Launch Date May 10, 2024
Age 1.3 years
Type internet

Technical Details

Classification Payload
Mass 960.00 kg
Dry Mass 910.00 kg
Total Mass 960.00 kg
Length 0.30 m
Diameter 4.10 m
Span 29.00 m
Shape Box + pan
Manufacturer SPXS
Bus Type Starlink V2MD
Phase Status In Orbit
Owner/State SPXS/US

Large Constellations

Loading constellations...